TimeMST,TemperatureF,Dew PointF,Humidity,Sea Level PressureIn,VisibilityMPH,Wind Direction,Wind SpeedMPH,Gust SpeedMPH,PrecipitationIn,Events,Conditions,WindDirDegrees,DateUTC
12:54 AM,33.1,16.0,50,30.04,10.0,Calm,Calm,-,N/A,,Clear,0,2013-01-19 07:54:00
1:54 AM,39.0,16.0,39,30.05,10.0,West,19.6,26.5,N/A,,Clear,280,2013-01-19 08:54:00
2:54 AM,37.0,17.1,44,30.06,10.0,West,17.3,-,N/A,,Clear,270,2013-01-19 09:54:00
3:54 AM,34.0,19.0,54,30.08,10.0,West,13.8,-,N/A,,Clear,260,2013-01-19 10:54:00
4:54 AM,35.1,17.1,48,30.12,10.0,Calm,Calm,-,N/A,,Clear,0,2013-01-19 11:54:00
5:54 AM,28.9,17.1,61,30.17,10.0,SW,8.1,-,N/A,,Clear,230,2013-01-19 12:54:00
6:54 AM,27.0,17.1,66,30.21,10.0,SW,8.1,-,N/A,,Clear,220,2013-01-19 13:54:00
7:54 AM,28.0,19.9,72,30.24,10.0,West,9.2,-,N/A,,Clear,270,2013-01-19 14:54:00
8:54 AM,26.1,21.9,84,30.29,10.0,West,9.2,-,N/A,,Clear,270,2013-01-19 15:54:00
9:54 AM,25.0,21.9,88,30.33,10.0,WSW,6.9,-,N/A,,Partly Cloudy,250,2013-01-19 16:54:00
10:08 AM,24.8,21.2,86,30.24,10.0,West,6.9,-,N/A,,Mostly Cloudy,270,2013-01-19 17:08:00
10:43 AM,26.6,23.0,86,30.24,10.0,WNW,4.6,-,N/A,,Scattered Clouds,290,2013-01-19 17:43:00
10:54 AM,26.1,23.0,88,30.34,10.0,West,5.8,-,N/A,,Partly Cloudy,280,2013-01-19 17:54:00
11:33 AM,26.6,23.0,86,30.23,10.0,West,6.9,-,N/A,,Scattered Clouds,260,2013-01-19 18:33:00
11:54 AM,26.1,23.0,88,30.31,10.0,West,5.8,-,N/A,,Scattered Clouds,260,2013-01-19 18:54:00
12:54 PM,27.0,23.0,85,30.28,10.0,West,6.9,-,N/A,,Clear,260,2013-01-19 19:54:00
1:54 PM,28.9,23.0,78,30.25,10.0,Calm,Calm,-,N/A,,Partly Cloudy,0,2013-01-19 20:54:00
2:54 PM,28.0,23.0,81,30.24,10.0,Calm,Calm,-,N/A,,Clear,0,2013-01-19 21:54:00
3:54 PM,28.0,23.0,81,30.22,10.0,ESE,4.6,-,N/A,,Clear,120,2013-01-19 22:54:00
4:54 PM,26.1,19.0,75,30.18,10.0,ESE,9.2,-,N/A,,Clear,120,2013-01-19 23:54:00
5:54 PM,26.1,19.0,75,30.18,10.0,ESE,6.9,-,N/A,,Clear,110,2013-01-20 00:54:00
6:54 PM,24.1,18.0,77,30.17,10.0,Calm,Calm,-,N/A,,Clear,0,2013-01-20 01:54:00
7:54 PM,23.0,17.1,78,30.16,10.0,Calm,Calm,-,N/A,,Clear,0,2013-01-20 02:54:00
8:54 PM,24.1,17.1,75,30.17,10.0,South,3.5,-,N/A,,Clear,190,2013-01-20 03:54:00
9:54 PM,25.0,15.1,66,30.18,10.0,WSW,13.8,-,N/A,,Clear,240,2013-01-20 04:54:00
10:54 PM,23.0,14.0,68,30.20,10.0,WSW,10.4,-,N/A,,Clear,250,2013-01-20 05:54:00
11:54 PM,28.0,16.0,61,30.24,10.0,NW,8.1,-,N/A,,Clear,320,2013-01-20 06:54:00